Theta_e
330 320 320 318 313 314 310 312 316 316 318 320 321 321 329 332 329 326 352 351 351 358 363 360 364 366 366 365 364 363 363 361 361 362 362 361 360 362 363 363 361 360 357 357 356 355 355 355 356
321 317 319 318 310 308 310 315 313 318 318 318 323 329 327 330 343 345 347 350 355 360 363 357 363 365 365 365 364 363 362 362 362 362 362 360 360 362 363 363 360 359 358 357 356 356 355 355 355
317 316 313 309 309 308 310 316 316 319 318 316 317 322 333 336 346 346 352 354 356 360 360 358 362 363 364 364 364 363 363 363 363 362 360 360 361 362 362 362 360 359 358 357 357 357 356 356 355
314 314 312 305 306 312 315 318 319 318 318 316 314 317 323 350 349 349 353 354 356 356 356 360 361 362 364 364 363 363 363 363 362 361 360 360 361 361 361 361 360 359 359 358 357 357 358 358 357
314 312 305 304 305 311 315 319 319 317 317 317 314 316 319 350 353 353 352 353 353 353 354 358 361 362 362 363 363 362 362 361 360 360 360 361 361 360 361 360 359 358 359 358 357 356 357 357 356
308 309 302 302 306 309 312 316 319 317 319 317 314 314 328 353 353 352 352 352 352 352 355 354 360 361 361 361 361 360 360 359 359 359 359 360 360 360 359 359 359 358 358 357 356 356 356 356 355
305 305 303 307 308 308 308 313 314 317 318 316 316 314 337 348 355 355 353 352 352 353 353 355 354 358 360 360 359 359 358 358 358 358 359 360 360 360 359 358 357 356 356 355 355 354 354 353 353
308 307 304 306 305 306 308 309 312 313 315 315 317 318 322 350 357 356 353 352 351 351 351 353 353 352 352 355 360 358 357 357 358 358 359 359 359 359 358 358 358 356 356 355 355 354 353 353 352
310 302 301 305 306 308 310 307 310 312 311 312 320 330 342 348 356 354 352 351 350 349 351 352 351 350 349 350 355 358 357 358 357 357 358 355 350 354 357 353 356 356 355 355 355 355 354 353 352
305 301 302 309 310 307 309 308 309 308 309 310 313 335 346 350 351 351 350 349 348 347 349 350 351 351 350 348 354 352 350 350 349 349 353 347 347 351 349 353 356 356 356 355 356 355 354 351 343
305 301 306 306 307 308 308 307 309 307 307 311 311 312 332 346 350 351 351 351 349 349 350 350 353 355 352 350 351 349 350 350 349 350 351 350 345 349 348 348 351 353 353 348 348 347 343 340 340
301 305 305 307 306 306 305 308 306 307 309 311 313 312 313 326 347 350 351 351 351 350 351 352 355 356 356 353 353 351 350 351 351 352 354 348 345 347 346 343 345 349 348 350 348 344 345 343 343
302 304 305 306 306 306 307 305 305 306 310 312 312 313 313 315 323 352 353 354 352 350 352 353 357 358 357 356 354 355 353 353 354 354 356 352 349 346 346 344 344 345 347 346 347 347 345 345 344
307 305 304 305 305 306 303 304 305 306 310 310 310 311 313 315 317 344 352 352 352 353 353 355 357 361 359 358 359 356 356 356 356 354 355 357 354 353 349 348 347 346 346 345 345 345 345 344 342
307 301 304 304 305 304 305 301 302 307 309 308 309 311 312 315 316 319 336 353 355 355 356 357 358 360 362 360 359 358 356 356 356 355 358 357 357 356 357 352 351 351 351 351 350 349 348 345 343
303 303 299 306 304 304 302 298 306 309 307 307 308 310 311 314 316 318 320 333 348 359 359 360 358 358 361 361 360 358 357 357 356 357 358 359 358 358 357 352 352 354 354 352 350 348 345 342 340
302 297 299 302 309 305 302 301 305 308 307 306 308 310 311 312 316 319 320 322 331 345 355 361 362 359 361 362 360 361 362 358 357 358 358 360 359 358 357 352 354 360 352 352 351 349 348 344 343
298 298 300 300 305 304 303 301 306 305 306 306 307 310 311 312 314 319 321 322 325 330 344 354 358 362 362 361 361 359 358 358 358 358 358 361 359 358 358 355 355 354 351 350 350 353 349 345 344
302 301 299 303 305 302 302 303 305 308 308 306 307 309 311 312 315 319 321 323 324 328 334 344 351 360 360 357 355 356 354 356 356 357 360 358 356 357 357 355 355 356 353 355 355 352 350 345 350
301 299 299 302 302 302 302 302 305 307 307 309 308 309 310 312 314 316 319 322 325 327 331 339 350 357 360 357 358 356 356 355 356 356 358 358 356 356 356 356 355 356 352 354 354 353 345 344 347
300 299 298 298 302 303 301 299 302 306 308 309 311 311 312 313 313 316 318 321 325 326 330 336 349 357 358 357 355 354 353 352 349 352 353 355 356 355 355 356 356 355 354 351 354 352 344 342 342
294 300 299 298 297 293 301 291 301 304 305 308 310 311 312 313 314 316 317 320 324 325 328 333 342 352 355 358 353 349 349 347 349 351 351 352 354 352 355 355 354 354 350 348 351 349 349 345 337
297 301 299 299 297 296 296 293 298 304 302 305 309 311 312 314 314 314 316 319 323 325 326 334 343 350 353 356 354 347 351 350 349 349 353 349 352 352 351 352 352 350 350 351 350 349 344 342 342
303 300 299 299 296 289 295 295 296 300 303 306 309 311 312 314 315 316 318 320 322 324 326 335 345 349 352 349 352 351 351 349 347 348 346 345 346 349 351 350 351 350 350 349 348 347 345 345 346
299 294 289 286 289 288 297 294 297 303 304 307 308 311 313 315 315 316 317 318 323 324 330 338 344 345 344 345 347 351 350 350 351 349 347 347 346 347 349 349 348 347 348 347 346 345 345 343 341
295 296 291 284 286 290 297 292 297 305 308 309 310 312 315 320 316 316 321 325 329 333 337 341 342 340 343 345 346 347 349 348 348 349 347 346 346 347 349 348 346 346 345 345 345 342 342 342 340
296 294 301 294 295 292 295 298 303 305 306 307 309 314 320 323 326 327 329 332 334 336 339 340 339 340 342 343 345 347 348 348 346 343 344 339 340 338 339 340 341 340 339 338 338 338 338 339 341
300 302 293 295 287 285 291 294 295 301 303 308 310 318 320 324 328 329 331 334 336 335 336 337 338 339 342 342 341 339 337 338 339 340 337 337 339 338 337 336 334 333 333 333 336 335 336 335 333
296 296 297 297 295 289 288 293 304 304 308 310 315 319 321 322 324 326 329 332 333 335 335 336 338 337 335 337 337 337 336 335 335 335 333 333 334 334 333 334 333 330 330 331 330 331 330 331 332
302 299 299 293 292 294 294 297 311 311 312 314 314 316 320 322 323 325 327 328 330 332 335 337 338 338 337 335 332 330 329 328 327 326 326 326 325 325 324 325 326 324 324 325 324 324 324 324 324
Wind_Speed
13 8 5 6 9 8 13 7 3 6 6 4 6 7 8 6 10 8 7 10 19 20 21 20 17 16 17 19 20 19 18 18 18 17 18 17 16 15 14 12 12 12 11 11 11 11 11 12 12
8 6 6 4 9 13 11 10 10 3 4 4 2 3 7 5 6 10 14 12 20 19 19 21 16 17 18 19 20 20 19 18 18 17 17 17 16 15 13 13 11 12 12 11 11 11 12 12 12
8 6 7 7 12 16 13 10 11 8 1 3 1 2 3 5 6 12 14 19 21 19 20 19 17 16 17 18 19 19 19 18 17 17 17 16 15 14 12 11 11 11 12 11 11 12 12 12 12
6 6 6 11 18 17 17 2 1 8 4 2 3 4 4 6 4 8 19 22 21 20 20 20 16 16 16 17 17 17 17 17 17 16 16 15 14 12 11 10 10 9 10 10 10 10 10 10 10
7 5 11 16 22 19 6 5 6 9 4 3 3 4 1 6 7 15 20 20 21 20 18 20 16 15 16 16 16 17 17 16 16 15 15 14 12 11 10 10 9 8 8 9 9 9 8 8 7
8 6 10 18 21 15 10 11 11 10 8 4 5 4 5 8 11 15 18 19 19 19 18 19 16 15 15 15 15 16 15 15 14 14 14 13 11 11 10 9 9 8 7 7 8 7 7 6 6
15 11 18 20 18 13 13 12 15 12 12 9 2 6 8 8 8 14 16 17 18 18 18 17 18 16 14 14 14 15 15 15 14 14 12 12 11 10 9 8 8 7 7 7 7 6 6 6 6
9 11 21 21 15 16 5 10 10 14 14 4 3 6 8 7 9 12 16 18 18 17 18 18 17 18 17 15 14 16 16 16 15 14 13 12 11 9 9 7 8 9 10 9 9 9 9 8 8
8 12 18 23 19 12 8 12 6 2 6 7 1 2 6 6 10 13 15 16 17 16 17 18 18 18 17 16 14 13 16 16 17 16 16 13 12 13 13 10 14 10 10 10 9 9 9 8 8
15 16 24 18 13 8 13 10 10 8 10 10 8 6 5 6 11 15 17 18 20 20 19 17 17 17 17 13 15 14 13 12 13 14 15 13 13 12 11 11 11 11 11 10 10 9 9 9 10
15 23 16 12 11 12 13 11 8 9 12 11 10 2 2 5 9 13 17 18 19 19 16 18 15 15 16 13 11 9 8 9 10 14 13 12 11 10 9 8 8 9 12 9 11 10 10 12 9
17 19 21 16 13 15 17 14 17 15 15 1 7 2 3 4 9 13 16 16 19 20 19 18 18 15 15 11 11 11 10 10 9 12 14 10 8 9 9 8 10 10 8 10 9 7 9 9 9
24 21 18 20 18 16 16 18 16 17 14 11 13 11 12 10 10 11 14 16 17 19 19 19 19 17 15 14 12 11 11 10 11 11 14 11 11 9 10 9 9 9 9 8 8 8 7 9 10
7 22 25 19 19 20 22 22 19 18 18 19 19 20 16 12 11 8 14 14 16 17 18 19 20 18 17 15 13 11 11 11 11 11 11 15 10 9 10 10 10 9 8 8 8 8 8 8 9
18 15 14 20 22 19 13 25 28 20 19 16 14 18 17 15 12 12 12 14 16 16 17 19 19 19 18 18 15 12 11 12 11 11 13 14 13 11 11 9 9 8 7 8 7 7 8 9 9
18 21 22 21 16 11 12 30 20 23 26 22 21 18 18 19 17 14 14 13 13 15 17 17 16 19 19 17 15 12 11 12 11 11 11 15 14 14 11 10 8 8 7 7 8 7 8 8 8
19 20 25 23 18 19 19 20 14 7 16 18 20 22 19 19 20 16 14 15 14 14 15 16 17 18 19 17 13 13 13 12 11 10 10 13 13 14 12 8 4 3 5 7 6 7 8 8 8
18 21 21 14 18 19 22 23 14 10 10 15 14 17 19 19 22 19 18 16 15 15 15 16 15 17 16 13 13 11 11 11 11 10 9 11 9 11 11 10 9 8 9 9 9 9 8 8 9
22 17 17 19 19 16 20 21 21 21 20 16 15 15 17 19 16 17 17 14 13 13 14 16 16 15 13 12 11 11 12 11 11 9 10 7 7 9 8 9 10 10 10 10 9 9 10 9 6
23 20 18 12 7 14 19 20 18 19 20 20 21 21 21 18 18 18 17 15 13 14 14 14 15 15 14 11 10 9 8 8 8 6 6 9 9 10 9 9 9 10 8 10 10 10 9 8 6
24 25 21 18 14 16 18 21 20 20 20 19 19 22 21 22 21 19 18 17 15 14 15 16 16 16 15 14 9 6 6 3 6 8 9 10 10 9 10 10 9 7 8 8 9 9 8 6 2
24 23 21 18 15 18 17 19 18 23 25 23 22 21 20 21 20 19 19 19 16 15 14 14 15 15 14 15 12 11 10 9 9 9 8 8 8 7 8 8 7 7 6 6 8 7 8 8 6
18 17 16 21 19 18 21 15 18 19 17 20 20 22 20 20 21 21 21 19 17 16 14 13 14 15 14 14 12 10 11 5 6 6 8 5 6 7 8 8 7 8 7 7 8 5 6 7 8
15 12 15 16 16 18 23 19 12 17 19 16 18 17 21 21 21 23 21 17 15 13 13 13 15 14 13 12 11 12 10 8 7 8 8 7 6 8 8 7 6 6 6 7 7 7 9 8 9
16 12 8 10 15 19 14 16 20 4 4 13 17 12 9 14 17 17 16 15 14 15 15 15 16 14 12 13 12 11 10 10 9 9 7 7 7 5 5 5 5 6 6 7 6 7 8 8 7
22 20 9 13 15 16 16 13 14 11 19 11 11 8 7 11 14 16 18 17 17 17 17 17 17 16 14 13 10 9 10 7 6 3 5 4 3 3 3 3 4 5 6 6 6 6 7 7 7
21 26 24 15 11 9 16 18 17 6 10 12 12 8 2 5 9 15 16 16 17 17 16 17 17 15 14 13 12 11 9 8 9 8 7 6 6 4 2 3 5 6 5 5 5 5 6 7 8
27 20 19 12 15 15 14 17 10 7 14 10 12 9 8 7 11 10 13 15 16 16 15 17 17 16 16 14 11 10 13 12 11 10 11 9 7 8 7 7 6 4 2 2 3 4 4 5 5
21 16 20 16 14 10 12 12 4 4 3 6 8 7 9 12 11 11 13 15 17 17 17 16 17 17 15 15 15 16 15 14 13 12 12 11 10 9 8 8 7 6 6 5 5 3 4 4 4
24 20 25 12 15 15 14 0 7 4 3 3 8 7 10 11 12 13 14 16 16 16 16 18 19 19 17 17 17 17 16 15 14 13 12 11 10 9 8 7 6 6 6 5 5 5 5 5 5
Wind_Direction
271 279 265 239 243 233 246 217 325 182 180 6 306 257 360 331 358 31 123 156 147 148 152 161 151 153 151 153 153 150 151 155 154 152 147 148 149 151 148 143 143 146 145 143 139 137 133 128 127
304 278 227 250 249 235 230 210 212 190 44 325 219 224 240 53 62 109 139 151 153 145 152 162 154 153 153 152 153 152 152 151 152 152 149 152 152 153 150 146 149 151 150 148 144 139 136 136 137
262 252 246 229 237 244 251 164 228 163 153 329 268 306 359 55 84 148 114 153 149 153 157 151 156 153 154 152 152 148 148 149 151 151 151 155 152 154 150 149 151 156 156 154 150 145 143 145 148
228 197 226 241 237 232 252 203 164 196 174 190 352 222 146 46 120 144 143 152 150 156 159 139 154 155 153 152 149 147 147 147 150 152 153 155 153 151 148 151 153 161 164 161 156 152 154 159 158
222 255 238 232 240 245 231 250 220 204 164 240 337 121 90 70 105 133 149 157 160 156 159 156 156 156 154 154 152 147 148 149 151 152 153 152 149 147 149 153 158 165 168 169 165 162 163 164 165
216 265 231 231 236 235 209 242 224 227 223 243 249 284 100 110 137 144 153 161 162 155 153 154 155 155 156 156 152 148 148 149 151 150 152 148 148 148 153 156 162 165 166 171 173 172 171 171 179
248 222 242 245 249 235 210 230 224 235 232 230 307 257 89 137 124 151 158 162 158 158 158 158 168 162 155 154 153 151 152 150 151 149 148 144 148 148 153 155 161 165 168 171 176 181 186 190 202
244 260 249 240 244 232 185 219 237 233 235 36 241 226 160 101 146 156 160 164 162 166 162 165 169 170 173 169 161 158 156 156 152 148 144 145 146 153 162 156 172 176 182 184 187 190 194 200 211
230 240 238 231 227 231 188 224 176 72 236 214 102 324 5 138 159 165 161 167 171 172 167 171 172 172 178 172 167 165 166 163 158 156 155 154 186 181 169 198 156 189 196 197 200 202 203 209 222
214 232 237 248 252 246 185 221 174 198 197 199 192 131 96 156 177 176 180 174 179 178 173 175 179 174 179 171 166 182 175 181 185 183 177 190 193 190 200 180 177 193 200 204 207 211 216 222 237
219 238 241 245 241 261 233 207 198 225 209 219 195 107 98 166 196 200 193 183 181 179 177 177 184 177 186 180 171 183 180 182 189 191 185 205 193 193 204 197 197 208 201 212 200 205 226 228 239
249 233 247 243 228 240 238 242 247 237 243 236 181 238 297 253 207 212 203 187 181 180 182 179 181 184 197 185 183 186 190 187 190 193 190 202 206 201 208 215 205 207 208 217 224 218 232 235 243
229 246 225 247 244 235 255 248 246 246 238 245 257 260 262 250 250 213 208 191 186 181 184 185 184 186 191 202 190 197 200 193 196 193 193 203 207 205 212 219 229 220 221 217 228 232 233 235 241
221 239 249 238 239 241 249 250 238 235 248 252 253 257 249 241 226 212 195 195 191 185 186 188 189 188 193 200 200 199 200 193 206 201 200 211 212 203 213 216 222 230 232 231 234 233 239 237 253
258 247 238 244 247 240 252 255 237 241 240 235 237 242 238 229 225 206 213 202 197 192 189 193 193 190 198 200 201 204 199 211 205 210 206 204 215 217 229 223 223 226 228 243 241 249 237 250 248
231 236 246 227 217 225 216 255 235 225 220 231 230 236 241 232 223 216 208 204 211 205 193 194 194 192 199 203 201 207 207 209 209 212 208 211 216 226 213 239 233 234 231 229 237 240 247 252 257
217 239 229 242 220 217 207 257 227 206 212 226 226 224 232 229 220 215 212 204 210 212 198 198 198 201 200 205 208 209 210 216 216 214 215 206 214 222 229 224 257 245 241 242 247 249 253 265 256
223 220 247 232 229 212 226 243 237 172 221 219 225 223 222 228 217 208 211 202 195 199 206 200 199 205 200 200 209 208 214 212 221 215 216 211 213 230 229 235 226 226 224 232 229 239 262 262 275
262 277 223 235 231 228 234 250 236 237 236 229 219 226 231 228 233 223 209 208 205 204 196 203 198 195 194 200 198 211 211 210 214 218 212 194 221 238 229 237 225 225 245 248 240 242 236 255 264
243 241 237 243 210 251 248 256 241 238 240 230 230 233 237 230 222 226 217 213 207 207 204 204 202 193 193 193 197 210 219 215 218 204 204 204 200 208 219 230 239 234 245 232 239 236 250 238 241
229 237 241 241 225 244 256 257 248 240 240 240 228 234 231 233 228 220 221 216 210 210 203 202 197 191 190 192 179 177 171 196 190 197 200 201 209 208 217 226 238 235 237 239 227 227 231 238 199
236 229 245 254 238 245 226 259 242 227 231 231 225 225 228 225 227 231 220 219 217 223 212 206 197 192 188 188 167 182 187 198 213 207 206 178 192 210 216 230 221 216 234 240 241 224 243 231 240
240 240 216 231 231 243 240 250 249 240 220 233 229 222 226 226 225 224 225 225 211 211 198 190 185 184 181 177 173 178 218 181 173 195 162 163 178 197 209 211 222 230 229 237 254 252 238 234 239
219 230 212 225 233 232 230 234 246 228 222 229 237 223 220 221 224 225 221 218 204 191 188 173 172 171 167 168 190 187 169 157 172 173 157 168 182 182 195 203 221 241 246 244 257 259 258 254 266
208 204 205 209 214 234 212 223 238 294 255 226 230 218 227 238 226 217 207 187 180 177 171 164 165 152 154 162 171 177 163 180 174 170 174 169 173 174 164 209 225 232 236 251 250 243 245 246 250
198 210 214 198 212 231 207 232 227 234 235 232 204 254 264 222 204 189 178 170 165 160 158 148 152 150 156 147 137 144 148 161 147 162 123 145 151 149 113 206 226 242 254 258 256 254 249 253 243
205 209 227 277 290 270 188 224 267 205 232 225 238 233 153 162 159 156 151 153 140 148 138 141 138 130 131 131 134 133 131 132 90 86 77 75 57 55 28 5 12 15 9 344 318 306 301 300 283
229 210 217 215 243 214 238 235 230 208 214 212 204 148 147 161 130 110 126 127 119 120 123 127 125 123 123 114 95 94 98 103 113 93 78 86 96 91 92 93 88 87 92 204 244 230 242 294 295
207 226 213 209 245 237 235 221 97 302 142 197 167 127 143 142 121 120 120 113 115 112 110 114 113 108 110 112 107 106 99 93 91 95 93 86 84 79 73 72 83 81 67 45 34 359 349 314 326
216 207 209 215 206 244 279 121 56 76 137 166 167 143 121 118 120 120 115 107 106 110 121 123 121 113 106 104 102 100 98 93 89 86 84 82 78 71 68 61 66 60 52 40 20 3 355 345 335